Home > Time Zones > World Clock > Weather > Sweden > Lund > Past weeks

Flag for Sweden Weather past 2 weeks in Lund, Sweden

Now
70 °F

Sunny.


Feels Like: 70 °F
Forecast: 62 / 83 °F
Wind: 9 mph from Southeast

Location: Malmo / Sturup

Current Time: Jul 3, 2015 at 9:57:06 AM

Latest Report: Jul 3, 2015 at 9:20 AM


Visibility: 10 mi

Pressure: 30.33 "Hg

Humidity: 64%

Dew point: 57 °F

Location of LundLocation

Historic Weather in Lund — Graph

°F

Lund temperature yesterday

Maximum temperature yesterday: 73 °F (at 2:20 PM)
Minimum temperature yesterday: 55 °F (at 1:50 AM)
Average temperature yesterday: 65 °F

Past Weeks' High & Low Weather Summary

 TemperatureHumidityPressure
High73 °F (Jul 1, 12:50 PM)100% (Jun 21, 4:50 AM)30.39 "Hg (Jun 21, 4:50 AM)
Low43 °F (Jun 22, 2:20 AM)38% (Jul 2, 2:20 PM)29.62 "Hg (Jun 23, 12:50 AM)
Average58 °F80%29.98 "Hg
* Reported Jun 18 8:20 AM — Jul 3 8:50 AM, Lund, Weather by CustomWeather, © 2015

Note: Actual official high and low records may vary slightly from our data, if they occured in-between our weather recording intervals... More about our weather records

Advertising

Lund weather history for previous 24 hours

 ConditionsComfort  
Time TempWeatherWind HumidityBarometerVisibility
8:50 AM
Fri, Jul 3
70 °FSunny.12 mph64%30.33 "Hg10 mi
8:20 AM68 °FSunny.8 mph69%30.33 "Hg10 mi
7:50 AM66 °FSunny.9 mph68%30.33 "Hg10 mi
7:20 AM64 °FSunny.8 mph73%30.33 "Hg10 mi
6:50 AM63 °FSunny.8 mph77%30.33 "Hg10 mi
6:20 AM63 °FSunny.7 mph77%30.33 "Hg10 mi
5:50 AM61 °FSunny.7 mph83%30.33 "Hg10 mi
5:20 AM61 °FClear.8 mph77%30.33 "Hg10 mi
4:50 AM59 °FClear.7 mph82%30.33 "Hg10 mi
4:20 AM59 °FClear.9 mph82%30.33 "Hg10 mi
3:50 AM59 °FClear.12 mph77%30.33 "Hg10 mi
3:20 AM59 °FClear.10 mph77%30.33 "Hg10 mi
2:50 AM61 °FClear.10 mph68%30.33 "Hg10 mi
2:20 AM61 °FClear.12 mph68%30.33 "Hg10 mi
1:50 AM61 °FClear.12 mph68%30.33 "Hg10 mi
1:20 AM61 °FClear.10 mph68%30.33 "Hg10 mi
12:50 AM61 °FClear.10 mph68%30.33 "Hg10 mi
12:20 AM61 °FClear.12 mph68%30.33 "Hg10 mi
11:50 PM
Thu, Jul 2
61 °FClear.13 mph72%30.33 "Hg10 mi
11:20 PM61 °FClear.12 mph72%30.33 "Hg10 mi
10:50 PM61 °FSunny.12 mph72%30.33 "Hg10 mi
10:20 PM61 °FSunny.12 mph68%30.36 "Hg10 mi
9:50 PM63 °FSunny.10 mph64%30.33 "Hg10 mi
9:20 PM64 °FSunny.12 mph60%30.33 "Hg10 mi
8:50 PM66 °FSunny.13 mph56%30.33 "Hg10 mi
8:20 PM66 °FSunny.12 mph56%30.33 "Hg10 mi
7:50 PM68 °FSunny.13 mph49%30.36 "Hg10 mi
7:20 PM70 °FSunny.16 mph46%30.36 "Hg10 mi
6:50 PM70 °FSunny.15 mph46%30.36 "Hg10 mi
6:20 PM72 °FSunny.16 mph44%30.36 "Hg10 mi
5:50 PM72 °FSunny.16 mph41%30.36 "Hg10 mi
5:20 PM73 °FSunny.16 mph41%30.36 "Hg10 mi
4:50 PM73 °FSunny.15 mph44%30.36 "Hg10 mi
4:20 PM73 °FSunny.16 mph44%30.36 "Hg10 mi
3:50 PM73 °FSunny.13 mph44%30.36 "Hg10 mi
3:20 PM73 °FSunny.14 mph44%30.36 "Hg10 mi
2:50 PM73 °FSunny.15 mph47%30.36 "Hg10 mi
2:20 PM73 °FSunny.15 mph38%30.39 "Hg10 mi
1:50 PM72 °FSunny.16 mph47%30.39 "Hg10 mi
1:20 PM72 °FSunny.17 mph44%30.39 "Hg10 mi
12:50 PM72 °FSunny.15 mph44%30.39 "Hg10 mi
12:20 PM70 °FSunny.15 mph46%30.39 "Hg10 mi
11:50 AM70 °FSunny.15 mph46%30.39 "Hg10 mi
11:20 AM70 °FSunny.15 mph46%30.39 "Hg10 mi
10:50 AM70 °FSunny.13 mph46%30.39 "Hg10 mi
10:20 AM68 °FSunny.15 mph56%30.39 "Hg10 mi
9:50 AM68 °FSunny.13 mph53%30.39 "Hg10 mi
9:20 AM66 °FSunny.13 mph56%30.39 "Hg10 mi
Weather by CustomWeather, © 2015

See weather overviewHow to use our weather pages